This is the latest recevied weather packets stored in our database for station/object KB9ZGZ. If no packets are shown the sender has not sent any weather packets the latest 10 day(s).
| Time | Temp. | Humidity | Pressure | Rain* | Wind** | Luminosity | Snow |
|---|---|---|---|---|---|---|---|
| 1777591821 | 16.11° C | 48% | 1009.4 hPa | 0.25 mm | - | - | - |
| 1777590920 | 16.11° C | 46% | 1009.5 hPa | 0.25 mm | - | - | - |
| 1777590035 | 16.11° C | 45% | 1009.7 hPa | 0.25 mm | - | - | - |
| 1777589119 | 16.67° C | 45% | 1009.6 hPa | 0.25 mm | - | - | - |
| 1777588219 | 16.67° C | 45% | 1009.7 hPa | 0.25 mm | - | - | - |
| 1777587316 | 17.22° C | 43% | 1009.8 hPa | 0.25 mm | - | - | - |
| 1777586414 | 17.78° C | 42% | 1009.9 hPa | 0.25 mm | - | - | - |
| 1777585511 | 18.89° C | 43% | 1009.9 hPa | 0.25 mm | - | - | - |
| 1777584609 | 18.33° C | 40% | 1009.9 hPa | 0.25 mm | - | - | - |
| 1777583707 | 18.33° C | 40% | 1010.2 hPa | 0.25 mm | - | - | - |
| 1777582837 | 17.78° C | 43% | 1010.5 hPa | 0.25 mm | - | - | - |
| 1777581944 | 17.22° C | 43% | 1010.9 hPa | 0.25 mm | - | - | - |
| 1777581060 | 16.67° C | 43% | 1011.1 hPa | 0.25 mm | - | - | - |
| 1777580188 | 17.22° C | 43% | 1011.4 hPa | 0.25 mm | - | - | - |
| 1777579257 | 16.67° C | 44% | 1011.7 hPa | 0.25 mm | - | - | - |
| 1777578357 | 16.11° C | 47% | 1011.8 hPa | 0.25 mm | - | - | - |
| 1777577456 | 16.11° C | 44% | 1012 hPa | 0.25 mm | - | - | - |
| 1777576555 | 16.67° C | 43% | 1012 hPa | 0.25 mm | - | - | - |
| 1777575623 | 16.67° C | 45% | 1012 hPa | 0.25 mm | - | - | - |
| 1777574723 | 16.67° C | 44% | 1012 hPa | 0.25 mm | - | - | - |
| 1777573882 | 17.22° C | 43% | 1012.2 hPa | 0.25 mm | - | - | - |
| 1777572970 | 17.22° C | 44% | 1012.4 hPa | 0.25 mm | - | - | - |
| 1777572066 | 17.22° C | 45% | 1012.5 hPa | 0.25 mm | - | - | - |
| 1777572064 | 17.22° C | 45% | 1012.5 hPa | 0.25 mm | - | - | - |
| 1777571165 | 17.22° C | 46% | 1012.6 hPa | 0.25 mm | - | - | - |
* Rain since midnight (hover to see other rain measurements)
** Current wind speed in m/s (hover to see current wind gust speed)